Find Starlink 32191

NORAD ID: 60314 Int'l Des: 2024-133 Owner: SPXS Country: US Constellation: starlink operational
LEOCIRCULAR

当前视图

正在加载3D地球...

About Starlink 32191

Starlink 32191 (NORAD 60314) is a starlink constellation satellite (v2 mini) launched Jul 28, 2024 by SPXS of US. It operates in LEO, CIRCULAR orbit with a mass of 730.00 kg.

关于 Starlink 32191

正在加载描述...

即将过境

Passes for default location (London). Set your location on the main map for personalized predictions.

高度历史

Loading altitude history...

两行轨道根数

1 60314U 24133P 26173.72392665 -.00000100 00000-0 87372-5 0 9990
2 60314 53.1594 169.0355 0001274 80.1380 279.9765 15.30193929107720
Epoch: Jun 22, 2026 • Age: 13 hours

当前状态

高度 479.4 km
速度 7.63 km/s
星下点 -14.16°S, 15.8°W
发射日期 Jul 28, 2024
运行时间 1.9 years
类型 internet

技术详情

分类 Payload
质量 730.00 kg
干质量 700.00 kg
总质量 730.00 kg
长度 0.30 m
直径 4.10 m
跨度 29.00 m
形状 Box + pan
制造商 SPXS
平台类型 Starlink V2M
阶段状态 In Orbit
所有者/国家 SPXS/US

Most Searched